[[{"header":{"parameterUnit":"m.s-1","parameterCategory":1,"la1":30.2991,"la2":30.254,"lo1":-89.0895,"lo2":-89.0444,"dy":0.0017,"dx":0.0017,"nx":28,"ny":28,"refTime":"2023-04-17T15:00:00:Z","depth":0,"parameterNumber":2,"parameterNumberName":"U-component_of_WINDS"},"data":[0,0,0,0,0,0,0,0,0,0,0,0,0,0,0,0,0,0,0,0,0,0,0,0,0,0,0,0,0,0,0,0,0,0,0,0,0,0,0,0,0,0,0,0,0,0,0,0,0,0,0,0,0,0,0,0,0,0,1.768,1.768,0,1.7678,1.7678,1.7678,1.7651,1.7651,1.765,1.765,1.7647,1.7647,1.7648,0,0,0,0,0,0,0,0,0,0,0,0,0,1.7663,1.7663,1.768,1.768,1.768,1.7678,1.7678,1.7678,1.7652,1.7651,1.765,1.7649,1.7647,1.7647,1.7648,0,0,0,0,0,0,0,0,0,0,0,0,0,1.7666,1.7664,1.768,1.7667,1.7666,1.7678,1.7678,1.7678,1.7652,1.7651,1.765,1.7649,1.7646,1.7647,1.7648,1.7673,0,0,1.765,1.7651,0,0,0,0,0,0,0,0,1.7666,1.7667,1.7669,1.7668,1.7667,1.7664,1.7671,1.7676,1.7652,1.7657,1.765,1.7648,1.7653,1.7653,1.7655,1.7672,1.7672,1.765,1.7651,1.7651,1.7652,0,0,0,0,0,0,0,1.7666,1.7667,1.7679,1.7669,1.7668,1.7661,1.7661,1.7671,1.7661,1.7657,1.7655,1.7655,1.7652,1.7654,1.7655,1.7672,1.765,1.7651,1.7652,1.7652,1.771,1.7711,0,0,0,0,0,0,1.7668,1.7667,1.7679,1.7679,1.7664,1.7662,1.7662,1.7666,1.766,1.7659,1.7656,1.7653,1.7653,1.7654,1.7655,1.7683,1.7651,1.7652,1.7653,1.7708,1.771,1.7711,0,0,0,0,0,0,1.7667,1.7669,1.7679,1.7673,1.7673,1.7664,1.7668,1.7666,1.7668,1.766,1.7658,1.7659,1.7653,1.7654,1.7668,1.7682,1.7652,1.7653,1.7707,1.7709,1.771,1.7739,0,0,0,0,0,0,1.7667,1.7669,1.7678,1.7673,1.7674,1.7693,1.7669,1.7667,1.767,1.7667,1.7663,1.7661,1.7652,1.7667,1.7669,1.7683,1.7654,1.7706,1.7708,1.771,1.7737,1.7741,1.7745,0,0,0,0,0,1.7667,1.7686,1.7679,1.768,1.7685,1.7694,1.7694,1.7683,1.7671,1.768,1.7675,1.7661,1.7681,1.7669,1.7671,1.7685,1.7705,1.7707,1.771,1.7735,1.774,1.7745,0,0,0,0,0,0,1.7693,1.7685,1.7677,1.7695,1.7696,1.7689,1.77,1.769,1.7693,1.769,1.7677,1.7676,1.7693,1.7691,1.7678,1.7708,1.7691,1.7693,1.7709,1.7714,1.7718,1.7718,1.7654,0,0,0,0,0,1.7701,1.7709,1.7702,1.7719,1.7719,1.771,1.7713,1.7705,1.7705,1.7704,1.77,1.77,1.7706,1.771,1.7715,1.7737,1.7735,1.7748,1.7752,1.7755,1.7757,1.7768,1.7773,1.7719,1.7719,1.7719,0,0,1.7717,1.7714,1.772,1.7724,1.7723,1.7731,1.771,1.772,1.7726,1.7706,1.7719,1.7716,1.7716,1.7734,1.7741,1.7732,1.7773,1.7758,1.7761,1.7761,1.7771,1.7776,1.7781,1.772,1.772,1.772,0,0,1.7751,1.775,1.7764,1.7764,1.7763,1.7757,1.776,1.7756,1.7753,1.7767,1.7752,1.7759,1.777,1.777,1.7771,1.7807,1.7794,1.7809,1.783,1.7841,1.7846,1.7849,1.7861,1.7866,1.7811,1.7811,1.7811,0,1.7772,1.7784,1.7773,1.7783,1.7786,1.7769,1.7783,1.7783,1.7784,1.7786,1.7776,1.7789,1.7787,1.7805,1.7813,1.7816,1.7819,1.7808,1.7846,1.785,1.7853,1.7864,1.7869,1.7813,1.7813,1.7813,1.7813,0,1.7809,1.7817,1.7829,1.783,1.7834,1.7846,1.7837,1.7842,1.7834,1.7829,1.7843,1.7841,1.7845,1.7849,1.7841,1.7866,1.786,1.7848,1.783,1.786,1.787,1.7874,1.7815,1.7815,1.7814,1.7814,0,0,1.7858,1.7853,1.7858,1.7858,1.7856,1.7863,1.7875,1.7879,1.7884,1.7885,1.7895,1.7905,1.7894,1.7896,1.7888,1.7897,1.7925,1.7884,1.7884,1.7891,1.7951,1.7959,1.7964,1.7918,1.7918,1.7919,1.7951,0,1.789,1.7909,1.79,1.7921,1.7928,1.7913,1.7924,1.7924,1.792,1.7926,1.7922,1.7929,1.7914,1.7915,1.7924,1.792,1.7936,1.7917,1.7925,1.7926,1.7925,1.797,1.7978,1.8008,1.7955,1.7956,1.7956,0,1.7929,1.7932,1.7954,1.7951,1.7954,1.7963,1.7967,1.7973,1.7973,1.797,1.7972,1.7962,1.7974,1.7957,1.7972,1.7959,1.7963,1.7961,1.7962,1.7961,1.7942,1.7969,1.8017,1.8022,1.7962,1.7962,1.7961,0,1.7961,1.7971,1.7985,1.7987,1.7984,1.7991,1.799,1.7989,1.7993,1.7996,1.7998,1.8003,1.8005,1.8009,1.8,1.7989,1.8017,1.7999,1.8014,1.8014,1.8019,1.8019,1.8068,1.8024,1.8023,1.8023,1.8023,0,1.7997,1.8011,1.8,1.8008,1.8023,1.8013,1.8028,1.8026,1.8026,1.8033,1.8021,1.8029,1.8018,1.8024,1.8018,1.8032,1.8033,1.803,1.8028,1.8031,1.8031,1.8031,1.8029,1.8025,1.8024,1.8024,1.8024,0,1.8035,1.8028,1.8043,1.8039,1.8039,1.805,1.8047,1.8055,1.8051,1.8061,1.8062,1.8056,1.8063,1.8056,1.8062,1.8058,1.8076,1.8072,1.8076,1.8074,1.8089,1.8087,1.8138,1.8144,1.8098,1.8098,1.8099,0,1.8057,1.8067,1.8065,1.807,1.807,1.8077,1.8081,1.8072,1.8076,1.8077,1.8085,1.8091,1.8095,1.8108,1.8103,1.8109,1.8103,1.8121,1.8104,1.8106,1.8102,1.8101,1.8102,1.8124,1.8125,1.8125,1.8126,0,1.8098,1.8094,1.81,1.8104,1.8109,1.8112,1.8115,1.8119,1.811,1.8115,1.8122,1.8126,1.8133,1.8139,1.8143,1.8143,1.8132,1.8132,1.8135,1.8137,1.8138,1.8136,1.8084,1.813,1.8129,1.8129,1.8129,1.8129,1.8128,1.8136,1.8136,1.8142,1.8143,1.8146,1.8153,1.815,1.8156,1.8161,1.8156,1.8165,1.8165,1.817,1.817,1.8177,1.8169,1.8175,1.8176,1.8177,1.8178,1.8139,1.8178,1.8178,1.8178,1.8178,1.8177,0,1.8166,1.8166,1.8172,1.8176,1.8181,1.8172,1.8175,1.818,1.8188,1.8189,1.8194,1.8202,1.8209,1.8205,1.8211,1.8217,1.8212,1.8218,1.8217,1.8217,1.8185,1.8181,1.8222,1.8222,1.8222,1.8222,1.8222,1.8222,1.8187,1.82,1.8197,1.8211,1.821,1.8219,1.8221,1.8223,1.8224,1.8235,1.824,1.8238,1.8237,1.8243,1.8248,1.8247,1.8249,1.8257,1.8254,1.8224,1.8219,1.8215,1.8211,1.8257,1.8257,1.8284,1.8285,1.8285]},{"header":{"parameterUnit":"m.s-1","parameterCategory":1,"la1":30.2991,"la2":30.254,"lo1":-89.0895,"lo2":-89.0444,"dy":0.0017,"dx":0.0017,"nx":28,"ny":28,"refTime":"2023-04-17T15:00:00:Z","depth":0,"parameterNumber":3,"parameterNumberName":"V-component_of_WINDS"},"data":[0,0,0,0,0,0,0,0,0,0,0,0,0,0,0,0,0,0,0,0,0,0,0,0,0,0,0,0,0,0,0,0,0,0,0,0,0,0,0,0,0,0,0,0,0,0,0,0,0,0,0,0,0,0,0,0,0,0,-3.1753,-3.1755,0,-3.1907,-3.1908,-3.191,-3.1883,-3.1881,-3.1878,-3.1876,-3.2031,-3.2037,-3.2044,0,0,0,0,0,0,0,0,0,0,0,0,0,-3.1436,-3.1442,-3.1753,-3.1755,-3.1757,-3.1906,-3.1909,-3.1911,-3.1884,-3.1881,-3.1877,-3.1874,-3.2029,-3.2037,-3.2045,0,0,0,0,0,0,0,0,0,0,0,0,0,-3.158,-3.1444,-3.1753,-3.1762,-3.1764,-3.1906,-3.1909,-3.1911,-3.1885,-3.1881,-3.1876,-3.1873,-3.2026,-3.2036,-3.2046,-3.2188,0,0,-3.2076,-3.2081,0,0,0,0,0,0,0,0,-3.1572,-3.1592,-3.1759,-3.1761,-3.1764,-3.1872,-3.1854,-3.2004,-3.1886,-3.1839,-3.1875,-3.1871,-3.1981,-3.1995,-3.2032,-3.2195,-3.2202,-3.2077,-3.2083,-3.2087,-3.209,0,0,0,0,0,0,0,-3.1562,-3.1585,-3.1814,-3.1761,-3.1765,-3.1758,-3.1774,-3.1882,-3.1931,-3.1843,-3.1841,-3.186,-3.1982,-3.2023,-3.2036,-3.2204,-3.2077,-3.2086,-3.2092,-3.2096,-3.2492,-3.2497,0,0,0,0,0,0,-3.155,-3.1577,-3.1809,-3.1819,-3.1656,-3.1767,-3.1785,-3.1841,-3.1929,-3.1939,-3.1863,-3.1858,-3.2008,-3.2024,-3.2041,-3.2214,-3.2087,-3.2097,-3.2102,-3.2488,-3.2493,-3.2498,0,0,0,0,0,0,-3.1543,-3.1571,-3.1803,-3.1697,-3.1727,-3.1777,-3.184,-3.1847,-3.1887,-3.1945,-3.1953,-3.1896,-3.2005,-3.2027,-3.2152,-3.2219,-3.2101,-3.211,-3.2482,-3.249,-3.2496,-3.2561,0,0,0,0,0,0,-3.1534,-3.1568,-3.1623,-3.1699,-3.1732,-3.1912,-3.1845,-3.1852,-3.1905,-3.1899,-3.1978,-3.1987,-3.2004,-3.2137,-3.2162,-3.2231,-3.2118,-3.2477,-3.2486,-3.2494,-3.2553,-3.2569,-3.2583,0,0,0,0,0,-3.1523,-3.1635,-3.1626,-3.1654,-3.1802,-3.1916,-3.1935,-3.1952,-3.191,-3.1966,-3.2003,-3.1984,-3.2208,-3.215,-3.2178,-3.225,-3.2473,-3.2483,-3.2493,-3.2546,-3.2566,-3.2582,0,0,0,0,0,0,-3.1565,-3.1645,-3.1636,-3.1776,-3.1839,-3.1911,-3.1981,-3.1972,-3.2048,-3.204,-3.2058,-3.2076,-3.2203,-3.2239,-3.2174,-3.2393,-3.2334,-3.235,-3.2365,-3.2384,-3.2399,-3.2388,-3.2126,0,0,0,0,0,-3.1591,-3.1677,-3.1742,-3.1859,-3.1891,-3.1931,-3.1981,-3.1989,-3.2055,-3.2082,-3.2128,-3.2192,-3.2277,-3.2332,-3.2414,-3.2558,-3.2575,-3.2621,-3.2636,-3.2648,-3.2662,-3.2742,-3.2763,-3.2532,-3.2532,-3.2532,0,0,-3.1645,-3.1699,-3.1752,-3.1869,-3.1919,-3.2008,-3.1954,-3.205,-3.2116,-3.2096,-3.2217,-3.2254,-3.2327,-3.2462,-3.2524,-3.2496,-3.273,-3.2661,-3.267,-3.2678,-3.2755,-3.2776,-3.2796,-3.2539,-3.2538,-3.2537,0,0,-3.1788,-3.1838,-3.1941,-3.1993,-3.2069,-3.2095,-3.212,-3.2194,-3.2217,-3.2339,-3.2327,-3.2405,-3.255,-3.2603,-3.2649,-3.2813,-3.28,-3.2839,-3.2917,-3.2995,-3.3013,-3.3029,-3.3088,-3.3109,-3.2853,-3.2853,-3.2853,0,-3.1845,-3.1979,-3.1996,-3.2094,-3.2145,-3.2132,-3.2238,-3.2286,-3.2385,-3.2421,-3.2389,-3.2572,-3.262,-3.2768,-3.2808,-3.2845,-3.2874,-3.283,-3.3009,-3.3026,-3.3041,-3.3098,-3.312,-3.2857,-3.2857,-3.2856,-3.2856,0,-3.2046,-3.2139,-3.2213,-3.231,-3.237,-3.2471,-3.2503,-3.2561,-3.2564,-3.2593,-3.2718,-3.2775,-3.2868,-3.2904,-3.2907,-3.3053,-3.3033,-3.3005,-3.2946,-3.3067,-3.3121,-3.3143,-3.2864,-3.2862,-3.2861,-3.286,0,0,-3.2221,-3.2326,-3.2353,-3.2397,-3.2481,-3.2553,-3.2653,-3.2744,-3.2795,-3.2863,-3.2948,-3.3072,-3.3046,-3.3098,-3.3107,-3.3175,-3.3303,-3.3139,-3.3141,-3.3168,-3.3467,-3.3489,-3.3513,-3.3294,-3.3298,-3.3301,-3.3461,0,-3.2373,-3.255,-3.2568,-3.2727,-3.2813,-3.2802,-3.289,-3.2951,-3.2981,-3.3058,-3.309,-3.3178,-3.3137,-3.3169,-3.3236,-3.3273,-3.3363,-3.3262,-3.3373,-3.3377,-3.3356,-3.3541,-3.3564,-3.3713,-3.3482,-3.3486,-3.3488,0,-3.2574,-3.2649,-3.2817,-3.2889,-3.2926,-3.3004,-3.309,-3.3164,-3.3233,-3.325,-3.3308,-3.3309,-3.3412,-3.3349,-3.3491,-3.3422,-3.3469,-3.3494,-3.35,-3.3511,-3.344,-3.3559,-3.376,-3.3783,-3.3521,-3.3519,-3.3516,0,-3.2685,-3.2829,-3.2948,-3.2986,-3.3073,-3.3128,-3.3167,-3.3232,-3.3286,-3.336,-3.3396,-3.3481,-3.3528,-3.3594,-3.3617,-3.3569,-3.3759,-3.3698,-3.3777,-3.3776,-3.3818,-3.3815,-3.403,-3.3846,-3.3846,-3.3846,-3.3845,0,-3.2854,-3.2957,-3.2999,-3.3073,-3.3188,-3.3207,-3.3321,-3.3357,-3.3415,-3.3495,-3.349,-3.3565,-3.3591,-3.3671,-3.369,-3.3805,-3.3826,-3.3843,-3.3847,-3.3844,-3.3842,-3.3875,-3.3866,-3.3852,-3.385,-3.3849,-3.3848,0,-3.2998,-3.3031,-3.316,-3.3232,-3.3252,-3.3334,-3.3396,-3.3467,-3.3495,-3.3597,-3.3622,-3.3667,-3.3761,-3.379,-3.3903,-3.3915,-3.4051,-3.4045,-3.4028,-3.4029,-3.4106,-3.4099,-3.4351,-3.4385,-3.4178,-3.418,-3.4182,0,-3.3104,-3.3183,-3.3264,-3.3318,-3.3359,-3.3445,-3.35,-3.3522,-3.358,-3.3665,-3.3726,-3.3818,-3.3894,-3.4043,-3.4086,-3.4172,-3.4169,-3.4252,-3.4182,-3.4177,-3.4171,-3.4167,-3.4175,-3.4265,-3.4267,-3.4269,-3.427,0,-3.3288,-3.3301,-3.3381,-3.3467,-3.3533,-3.3602,-3.3668,-3.3712,-3.3744,-3.3809,-3.3905,-3.3964,-3.4079,-3.4171,-3.4259,-3.4299,-3.4291,-3.4292,-3.4315,-3.4313,-3.43,-3.4309,-3.4065,-3.4286,-3.4284,-3.4283,-3.4282,-3.4282,-3.3417,-3.3488,-3.3556,-3.3645,-3.3698,-3.376,-3.383,-3.3868,-3.3948,-3.4045,-3.4052,-3.4156,-3.4223,-3.4341,-3.4385,-3.4466,-3.4442,-3.4475,-3.4484,-3.4492,-3.4499,-3.4286,-3.4482,-3.4481,-3.4481,-3.4481,-3.448,0,-3.3602,-3.3646,-3.3728,-3.3821,-3.3892,-3.3878,-3.395,-3.401,-3.4102,-3.4165,-3.424,-3.435,-3.444,-3.449,-3.4579,-3.4635,-3.4633,-3.4658,-3.4654,-3.4664,-3.4514,-3.4486,-3.4658,-3.4657,-3.4657,-3.4657,-3.4657,-3.4657,-3.3707,-3.3825,-3.3846,-3.399,-3.4032,-3.4134,-3.4177,-3.4235,-3.4286,-3.4409,-3.4484,-3.4516,-3.4574,-3.4668,-3.475,-3.4762,-3.4795,-3.4823,-3.4833,-3.4692,-3.4674,-3.4657,-3.463,-3.483,-3.483,-3.4976,-3.4977,-3.4978]}]]